Flight Track Log - Related Links

Times and Time Zones

All times are in EDT time to prevent confusion due to time zone crossing. See the SWA3121 flight status page for this flight to view local times or setup timezone preferences in your user account.

Time Position Orientation Groundspeed Altitude Reporting Facility
EDT Latitude Longitude Course Direction KTS MPH feet Rate Location/Type
10:57PM 29.6367 -95.2361 74° East 186 214 1,500  Level Houston Center
10:58PM 29.6914 -95.2392 357° North 206 237 4,600 3,100 Climbing Houston Center
10:59PM 29.7547 -95.2700 337° Northwest 239 275 7,700 3,098 Climbing Houston Center
11:00PM 29.8233 -95.3044 336° Northwest 260 299 10,900 3,197 Climbing Houston Center
11:01PM 29.9061 -95.3433 338° Northwest 313 360 14,200 3,148 Climbing Houston Center
11:02PM 30.2009 -95.5078 339° North  Level FlightAware Approximate
11:02PM 29.9900 -95.3844 337° Northwest 326 375 17,300  Level Houston Center
11:03PM 30.0817 -95.4297 337° Northwest 355 409 20,300 2,852 Climbing Houston Center
11:04PM 30.1767 -95.4764 337° Northwest 369 425 23,100 2,479 Climbing Houston Center
11:05PM 30.2767 -95.5264 337° Northwest 388 447 25,300 2,083 Climbing Houston Center
11:06PM 30.3817 -95.5783 337° Northwest 406 467 27,300 1,967 Climbing Houston Center
11:07PM 30.4897 -95.6286 338° Northwest 418 481 29,300 1,967 Climbing Houston Center
11:08PM 30.5978 -95.6836 336° Northwest 427 491 31,300 2,311 Climbing Houston Center
11:09PM 30.7094 -95.7458 334° Northwest 421 484 34,000 2,115 Climbing Houston Center
11:10PM 30.8144 -95.8022 335° Northwest 414 476 35,600 1,328 Climbing Houston Center
11:11PM 30.9197 -95.8586 335° Northwest 415 478 36,700 1,180 Climbing Houston Center
11:12PM 31.0264 -95.9156 335° Northwest 419 482 38,000 639 Climbing Houston Center
11:13PM 31.1514 -95.9789 337° Northwest 408 470 38,000  Level Houston Center
11:14PM 31.2222 -95.9994 346° North 410 472 38,000  Level Fort Worth Center
11:15PM 31.3353 -96.0367 344° North 410 472 38,000  Level Fort Worth Center
11:16PM 31.4422 -96.0742 343° North 410 472 38,000  Level Fort Worth Center
11:17PM 31.5553 -96.1117 344° North 410 472 38,000  Level Fort Worth Center
11:18PM 31.6642 -96.1467 345° North 405 466 38,000  Level Fort Worth Center
11:19PM 31.7753 -96.1867 343° North 405 466 38,000  Level Fort Worth Center
11:20PM 31.8883 -96.2267 343° North 405 466 38,000  Level Fort Worth Center
11:21PM 31.9994 -96.2644 344° North 411 473 38,000  Level Fort Worth Center
11:22PM 32.1103 -96.3022 344° North 416 479 38,000  Level Fort Worth Center
11:23PM 32.2108 -96.3356 344° North 416 479 38,000  Level Fort Worth Center
11:24PM 32.3303 -96.3808 342° North 411 473 38,000  Level Fort Worth Center
11:25PM 32.4286 -96.4167 343° North 406 467 38,000  Level Fort Worth Center
11:26PM 32.5458 -96.4669 340° North 406 467 38,000  Level Fort Worth Center
11:27PM 32.6444 -96.5056 342° North 406 467 38,000  Level Fort Worth Center
11:28PM 32.7636 -96.5511 342° North 406 467 38,000  Level Fort Worth Center
11:29PM 32.8642 -96.5922 341° North 416 479 38,000  Level Fort Worth Center
11:30PM 32.9750 -96.6358 342° North 423 487 38,000 -50 Level Fort Worth Center
11:31PM 33.0858 -96.6819 341° North 428 493 37,900 -1,000 Descending Fort Worth Center
11:32PM 33.2094 -96.7306 342° North 428 493 36,000 -1,750 Descending Fort Worth Center
11:33PM 33.3139 -96.7722 342° North 428 493 34,400 -1,000 Descending Fort Worth Center
11:34PM 33.4394 -96.8236 341° North 428 493 34,000 -200 Descending Fort Worth Center
11:35PM 33.5522 -96.8675 342° North 428 493 34,000  Level Fort Worth Center
11:36PM 33.6694 -96.9144 342° North 428 493 34,000 -850 Level Fort Worth Center
11:37PM 33.7822 -96.9586 342° North 428 493 32,300 -2,200 Descending Fort Worth Center
11:38PM 33.8953 -97.0081 340° North 428 493 29,600 -2,650 Descending Fort Worth Center
11:39PM 34.0058 -97.0553 341° North 423 487 27,000 -2,400 Descending Fort Worth Center
11:40PM 34.1144 -97.1000 341° North 418 481 24,800 -2,200 Descending Fort Worth Center
11:41PM 34.2189 -97.1422 342° North 406 467 22,600 -2,150 Descending Fort Worth Center
11:42PM 34.3172 -97.1822 341° North 395 455 20,500 -2,050 Descending Fort Worth Center
11:43PM 34.4131 -97.2247 340° North 375 432 18,500 -1,900 Descending Fort Worth Center
11:44PM 34.5031 -97.2622 341° North 353 406 16,700 -1,900 Descending Fort Worth Center
11:45PM 34.5928 -97.2975 342° North 346 398 14,700 -2,000 Descending Fort Worth Center
11:46PM 34.6803 -97.3353 340° North 341 392 12,700 -1,906 Descending Fort Worth Center
11:46PM 34.7136 -97.3478 343° North 328 377 12,000 -1,700 Descending Fort Worth Center
11:47PM 34.7681 -97.3706 341° North 335 386 11,000 -1,315 Descending Fort Worth Center
11:47PM 34.8181 -97.3908 342° North 316 364 10,400 -1,200 Descending Fort Worth Center
11:48PM 34.8494 -97.4058 339° North 318 366 9,800 -1,400 Descending Fort Worth Center
11:48PM 34.8953 -97.4236 342° North 297 342 9,000 -1,400 Descending Fort Worth Center
11:49PM 34.9264 -97.4364 341° North 303 349 8,400 -1,574 Descending Fort Worth Center
11:49PM 34.9725 -97.4567 340° North 294 338 7,400 -1,600 Descending Fort Worth Center
11:50PM 35.0017 -97.4744 333° Northwest 297 342 6,800 -1,475 Descending Fort Worth Center
11:50PM 35.0411 -97.5125 322° Northwest 295 339 5,900 -1,500 Descending Fort Worth Center
11:51PM 35.0661 -97.5353 323° Northwest 292 336 5,300 -1,700 Descending Fort Worth Center
11:51PM 35.1119 -97.5811 321° Northwest 294 338 4,200 -1,300 Descending Fort Worth Center
11:52PM 35.1350 -97.5886 345° North 292 336 4,000 -197 Descending Fort Worth Center
11:52PM 35.1831 -97.5914 357° North 250 288 4,000  Level Fort Worth Center
11:53PM 35.2039 -97.5914 360° North 252 290 4,000 -300 Level Fort Worth Center
11:53PM 35.2456 -97.5942 357° North 225 259 3,700 -600 Descending Fort Worth Center
11:54PM 35.2642 -97.5917 North 230 265 3,400 -885 Descending Fort Worth Center
11:54PM 35.2956 -97.5942 356° North 171 197 2,800 -800 Descending Fort Worth Center
11:55PM 35.3103 -97.5917 North 199 229 2,600 -590 Descending Fort Worth Center
11:55PM 35.3331 -97.5942 355° North 111 128 2,200 -500 Descending Fort Worth Center
11:56PM 35.3414 -97.5917 14° North 160 184 2,100 -700 Descending Fort Worth Center
11:56PM 35.3686 -97.5944 355° North 119 137 1,500 -700 Descending Fort Worth Center
11:57PM 35.3747 -97.5944 360° North 131 151 1,400 -234 Descending Fort Worth Center
11:58PM 35.4186 -97.5919 North 123 142 1,200 -200 Descending Fort Worth Center

Login

Don't have an account? Register now (free) for customized features, flight alerts, and more!